Regional Weather Roundup
Issued by NWS

Home | Current Version | Previous Version | Text Only | Print | Product List | Glossary On
Versions: 1 2 3 4 5 6 7 8 9 10 11 12 13 14 15 16 17 18 19 20 21 22 23 24 25 26 27 28 29 30 31 32 33 34 35 36 37 38 39 40 41 42 43 44 45 46 47 48 49 50
000
ASUS43 KOAX 070610
RWRNE

WEATHER ROUNDUP FOR NEBRASKA
NATIONAL WEATHER SERVICE OMAHA NE
100 AM CDT TUE JUL 07 2015

NOTES: SATELLITE DATA IS BEING USED TO AUGMENT CLOUD COVER ABOVE
       12000 FEET.
       "FAIR" INDICATES FEW OR NO CLOUDS BELOW 12,000 FEET WITH NO
       SIGNIFICANT WEATHER AND/OR OBSTRUCTIONS TO VISIBILITY.

  * THESE STATIONS DO NOT REPORT WEATHER SUCH AS RAIN...SNOW OR FOG.

NEZ001>004-019>022-054>056-070700-
NEBRASKA PANHANDLE

CITY           SKY/WX    TMP DP  RH WIND       PRES   REMARKS
SCOTTSBLUFF    CLOUDY    64  57  78 SE5       30.24F HAZE
6HR MIN TEMP:  64; 6HR MAX TEMP:  68; 6HR PCP: TRACE;

ALLIANCE       CLOUDY    60  56  86 SE6       30.24S
6HR MIN TEMP:  60; 6HR MAX TEMP:  67;

CHADRON        CLOUDY    60  57  89 CALM      30.21F
6HR MIN TEMP:  59; 6HR MAX TEMP:  72;

KIMBALL          N/A    N/A N/A N/A MISG        N/A
SIDNEY         CLOUDY    62  54  74 SE5       30.27F HAZE
6HR MIN TEMP:  62; 6HR MAX TEMP:  68;

$$

NEZ057>060-069>072-079>082-070700-
SOUTHWEST NEBRASKA

CITY           SKY/WX    TMP DP  RH WIND       PRES   REMARKS
NORTH PLATTE   CLEAR     57  53  86 NE6       30.20S
6HR MIN TEMP:  57; 6HR MAX TEMP:  73;

IMPERIAL       CLOUDY    62  53  72 CALM      30.23R
6HR MIN TEMP:  61; 6HR MAX TEMP:  73;

LEXINGTON      CLEAR     57  54  89 N6        30.18S
MCCOOK         PTCLDY    59  54  83 N7        30.18S HAZE
6HR MIN TEMP:  59; 6HR MAX TEMP:  76;

OGALLALA       MOCLDY    60  54  79 NE3       30.22S
$$

NEZ005>010-023>029-035>040-094-070700-
NORTH CENTRAL NEBRASKA

CITY           SKY/WX    TMP DP  RH WIND       PRES   REMARKS
VALENTINE      PTCLDY    57  55  93 CALM      30.20F
6HR MIN TEMP:  57; 6HR MAX TEMP:  73;

AINSWORTH      CLEAR     60  56  88 CALM      30.20F
BROKEN BOW     CLEAR     58  54  86 N3        30.19R FOG
6HR MIN TEMP:  57; 6HR MAX TEMP:  74;

O`NEILL        CLEAR     56  55  94 N3        30.17S
ORD            CLEAR     55  52  89 N6        30.16R FOG
6HR MIN TEMP:  55; 6HR MAX TEMP:  75;

THEDFORD       CLEAR     58  55  88 CALM      30.22S
$$

NEZ041-046>049-061>064-073>077-083>087-070700-
SOUTH CENTRAL NEBRASKA

CITY           SKY/WX    TMP DP  RH WIND       PRES   REMARKS
GRAND ISLAND   CLEAR     59  55  87 N9        30.14S FOG
6HR MIN TEMP:  59; 6HR MAX TEMP:  74;

AURORA         CLEAR     61  59  94 N8        30.13S FOG
HASTINGS       CLEAR     62  55  77 N9        30.13F HAZE
6HR MIN TEMP:  62; 6HR MAX TEMP:  74;

HEBRON           N/A     65  58  79 N10       30.09R HAZE
HOLDREGE       CLEAR     57  53  88 N6        30.16R
KEARNEY *      CLEAR     59  52  77 N10       30.15S
YORK           CLEAR     63  59  88 NE8       30.12S FOG
$$

NEZ011>018-030>034-042>045-070700-
NORTHEAST NEBRASKA

CITY           SKY/WX    TMP DP  RH WIND       PRES   REMARKS
NORFOLK        CLEAR     60  56  86 N6        30.14S FOG
6HR MIN TEMP:  60; 6HR MAX TEMP:  74;

ALBION         CLEAR     59  54  83 N5        30.15S
BLAIR          CLEAR     63  54  72 N12       30.08S
FREMONT        CLEAR     63  55  76 N6        30.11S
TEKAMAH        CLEAR     60  55  83 N8        30.10R
6HR MIN TEMP:  60; 6HR MAX TEMP:  75;

WAYNE          CLEAR     55  54  97 CALM      30.14S FOG
$$

NEZ050>053-065>068-078-088>093-070700-
SOUTHEAST NEBRASKA

CITY           SKY/WX    TMP DP  RH WIND       PRES   REMARKS
LINCOLN        MOCLDY    63  59  87 N12       30.09R FOG
6HR MIN TEMP:  63; 6HR MAX TEMP:  73;

OMAHA EPPLEY   PTCLDY    64  56  75 N13       30.07R
6HR MIN TEMP:  64; 6HR MAX TEMP:  73;

BEATRICE       CLEAR     66  60  79 N12G20    30.07R HAZE
FALLS CITY     CLOUDY    68  61  78 N8        30.01R HAZE
6HR MIN TEMP:  68; 6HR MAX TEMP:  72; 6HR PCP:  0.03;

NEBRASKA CITY  MOCLDY    67  58  72 N18G24    30.05R HAZE
PLATTSMOUTH    CLEAR     65  56  72 N10G16    30.06R
$$

NEZ044-045-051>053-067-070700-
OMAHA AREA

CITY           SKY/WX    TMP DP  RH WIND       PRES   REMARKS
OMAHA EPPLEY   PTCLDY    64  56  75 N13       30.07R
6HR MIN TEMP:  64; 6HR MAX TEMP:  73;

BLAIR          CLEAR     63  54  72 N12       30.08S
FREMONT        CLEAR     63  55  76 N6        30.11S
MILLARD        CLEAR     66  56  70 N3        30.08R
OFFUTT AFB       N/A     66  55  69 N9G20     30.06R SMOKE
PLATTSMOUTH    CLEAR     65  56  72 N10G16    30.06R
WAHOO          FAIR      62  57  83 N7        30.09S
$$


USA.gov is the U.S. government's official web portal to all federal, state and local government web resources and services.